星链-3762 (STARLINK-3762 )

导读 | 豆包AI

STARLINK-3762是美国SpaceX公司星链星座的一员,于2022年4月29日发射入轨,属于星链低轨宽带互联网卫星。它采用平板设计,搭载氪工质霍尔推进器与Ku/Ka波段通信载荷,具备自主避撞能力,运行在近地轨道,为全球提供高速低延迟宽带互联网服务,尤其服务偏远无网区域,是星链全球星座组网的重要组成。

基本信息
目录编号:
52374
目录名称:
STARLINK-3762
国际标识:
2022-045AV
轨道中心:
EARTH
卫星名称:
星链-3762
卫星全名:
星链-3762 (STARLINK-3762 )
卫星状态:
在轨 (已飞行1415 天)
发射日期:
2022-04-29 UTC
国别 :
美国 (US)
星等 :
--
轨道信息
数据来源 国际轨道数据
星历时间: 2026-03-14T20:31:14+0800
11小时前
查看轨道信息
半长轴: 6917.889km
偏心率: 0.0001264
轨道倾角: 53.217°
近地点辐角 87.098°
升交点赤经 167.432°
平近点角 273.016°
近地点: 538.877km
远地点: 540.627km
周期: 95.438分钟
每日圈数: 15.088375
详细信息
固有亮度:
5
最大亮度:
2.5
卫星平台:
Starlink v1.5
覆盖范围:
全球
运营商:
太空探索技术公司
运营商所在国:
美国
制造商(研发单位):
太空探索技术公司
制造商所在国:
美国
使用方式:
暂无
卫星简介
星链(Starlink)计划是由太空探索技术公司(SpaceX)提出的一个巨型低轨卫星互联网星座项目,计划在2019年至2024年间在太空搭建由约1.2万颗卫星组成的“星链”网络,其中1584颗将部署在地球上空550千米处的近地轨道,并从2020年开始工作。该卫星仍在工作。
2D轨道图
3D轨道图
轨道高度分析图
轨道倾角分析图
轨道综合分析图
查看轨道综合分析图